Вернуться в каталог

RAISE-4

АктивенНаукаSSO
NORAD 67073·PAYLOAD·🇯🇵 Japan

Запущен Dec 14, 2025 с Rocket Lab Launch Complex 1

Loading…

Ближайшие Пролёты (ближайшие 24 часа)

TLE

СвежийSource: Space-Track

Эпоха: Sep 14, 2026, 08:57 UTC

1 67073U 25297B   26257.37334268  .00003015  00000-0  19142-3 0  9995
2 67073  97.5247  43.6450 0013592  91.3161 268.9625 15.09556093 41345

Отслеживайте RAISE-4 в реальном времени с AllMySat

Download on the App Store